AirNav   Air Wisconsin Up To $57,000 Bonus
 
 1033 users online  

71CL Gunnersfield Ranch Airport
Delevan, California, USA

GOING TO DELEVAN?


FAA INFORMATION EFFECTIVE 02 DECEMBER 2021

Location

FAA Identifier: 71CL
Lat/Long: 39-21-09.5910N 122-05-37.9160W
39-21.159850N 122-05.631933W
39.3526642,-122.0938656
(estimated)
Elevation: 62 ft. / 19 m (estimated)
Variation: 17E (1985)
From city: 4 miles E of DELEVAN, CA
Time zone: UTC -8 (UTC -7 during Daylight Saving Time)
Zip code: 95932

Airport Operations

Airport use: Private use. Permission required prior to landing
Activation date: 05/1965
Control tower: no
ARTCC: OAKLAND CENTER
FSS: RANCHO MURIETA FLIGHT SERVICE STATION
Attendance: UNATNDD
Wind indicator: yes
Segmented circle: no
Lights: FOR RWY LGTS PHONE 916-438-2316.
Beacon: white-green (lighted land airport)
FOR RTG BCN PHONE 916-438-2316.

Nearby radio navigation aids

VOR radial/distance  VOR name  Freq  Var
ILAr332/17.2WILLIAMS VORTAC114.4018E
MYVr286/28.6MARYSVILLE VOR/DME110.8016E

Airport Services

Airframe service: NONE
Powerplant service: NONE

Runway Information

Runway 16/34

Dimensions: 2570 x 40 ft. / 783 x 12 m
Surface: asphalt
Runway edge lights: low intensity
RUNWAY 16  RUNWAY 34
Traffic pattern: leftleft
Obstructions: none4 ft. levee, 20 ft. from runway

Airport Ownership and Management from official FAA records

Ownership: Privately-owned
Owner: JON B. CHANEY
PO BOX 626
MAXWELL, CA 95955
Phone 916-438-2504
Manager: DOUGLAS MC GEOGHEGAN
PO BOX 626
MAXWELL, CA 95955
Phone 916-438-2504

Airport Operational Statistics

Aircraft based on the field: 1
Single engine airplanes: 1
    

Additional Remarks

LGTD/MKD HANGER NEAR RWY.
FOR CD CTC OAKLAND ARTCC AT 510-745-3380.

Instrument Procedures

There are no published instrument procedures at 71CL.

Some nearby airports with instrument procedures:

KWLW - Willows-Glenn County Airport (11 nm NW)
O08 - Colusa County Airport (11 nm SE)
O37 - Haigh Field Airport (22 nm N)
KOVE - Oroville Municipal Airport (23 nm E)
KCIC - Chico Municipal Airport (29 nm N)
 
Loc | Ops | Rwys | IFR | FBO | Links
Com | Nav | Svcs | Stats | Notes

Sonoma Jet Center
 
Area around 71CL (Gunnersfield Ranch Airport)
 
Road maps at: MapQuest Bing Google
 
Aerial photo
No photo
 
Sectional chart

 
Airport distance calculator
Flying to Gunnersfield Ranch Airport? Find the distance to fly.

From to 71CL

Sunrise and sunset
Times for 07-Dec-2021
 Local
(UTC-8)
 Zulu
(UTC)
Morning civil twilight06:4614:46
Sunrise07:1615:16
Sunset16:4400:44
Evening civil twilight17:1401:14

Current date and time
Zulu (UTC)  07-Dec-2021 23:50:13
Local (UTC-8)  07-Dec-2021 15:50:13
 
METAR
KOVE 
24nm E 
072253Z AUTO 16008KT 5SM BR OVC007 11/09 A2996 RMK AO2 SLP148 T01110094 $
KCIC 
29nm NE 
072255Z 30006KT 40SM FEW070 18/09 A2994
KMYV 
29nm SE 
072253Z AUTO 14009KT 6SM HZ OVC007 11/08 A2997 RMK AO2 SLP152 T01060078
KBAB 
33nm SE 
072329Z 16008KT 5SM BR OVC007 11/11 A2997
KLHM 
44nm SE 
072335Z AUTO 16009KT 7SM OVC009 10/09 A2998 RMK AO1
KSMF 
45nm SE 
072253Z 15006KT 10SM SCT011 SCT015 12/08 A2997 RMK AO2 SLP148 T01220083
TAF
KBAB 
33nm SE 
071952Z 0719/0901 33006KT 1600 BR BKN005 BKN200 QNH2997INS BECMG 0720/0721 29007KT 4800 BR SCT015 QNH2994INS BECMG 0800/0801 15006KT 8000 BR SCT015 QNH2999INS BECMG 0805/0806 15006KT 6000 BR BKN005 QNH2999INS TEMPO 0810/0816 3200 BR BECMG 0815/0816 15006KT 8000 BR BKN005 OVC010 QNH2997INS BECMG 0823/0824 15009KT 9000 BR BKN015 OVC150 QNH2996INS TX14/0722Z TN07/0812Z
NOTAMs
Click for the latest NOTAMs
NOTAMs are issued by the DoD/FAA and will open in a separate window not controlled by AirNav.

 

 
 

Would you like to see your business listed on this page?

 If your business provides an interesting product or service to pilots, flight crews, aircraft, or users of the Gunnersfield Ranch Airport, you should consider listing it here.  To start the listing process, click on the button below
 
Add a business
 

Other Pages about Gunnersfield Ranch Airport

Update a link
 
Copyright © AirNav, LLC. All rights reserved. Privacy Policy  Contact